Regional Weather Roundup
Issued by NWS

Home | Current Version | Previous Version | Text Only | Print | Product List | Glossary On
Versions: 1 2 3 4 5 6 7 8 9 10 11 12 13 14 15 16 17 18 19 20 21 22 23 24 25 26 27 28 29 30 31 32 33 34 35 36 37 38 39 40 41 42 43 44 45 46 47 48 49 50
000
ASUS43 KOAX 261010
RWRNE

WEATHER ROUNDUP FOR NEBRASKA
NATIONAL WEATHER SERVICE OMAHA NE
500 AM CDT THU MAR 26 2015

NOTES: SATELLITE DATA IS BEING USED TO AUGMENT CLOUD COVER ABOVE
       12000 FEET.
       "FAIR" INDICATES FEW OR NO CLOUDS BELOW 12,000 FEET WITH NO
       SIGNIFICANT WEATHER AND/OR OBSTRUCTIONS TO VISIBILITY.

  * THESE STATIONS DO NOT REPORT WEATHER SUCH AS RAIN...SNOW OR FOG.

NEZ001>004-019>022-054>056-261100-
NEBRASKA PANHANDLE

CITY           SKY/WX    TMP DP  RH WIND       PRES   REMARKS
SCOTTSBLUFF    CLEAR     25  21  85 NE3       30.16F
ALLIANCE       PTCLDY    22  16  78 CALM      30.15F
CHADRON        CLOUDY    28  23  81 W5        30.15S WCI  23
KIMBALL        PTCLDY    29  28  96 SW7       30.13F WCI  21
SIDNEY         MOCLDY    27  24  89 SW5       30.16F WCI  22
$$

NEZ057>060-069>072-079>082-261100-
SOUTHWEST NEBRASKA

CITY           SKY/WX    TMP DP  RH WIND       PRES   REMARKS
NORTH PLATTE   CLEAR     19  15  84 NW3       30.21F
IMPERIAL         N/A     24  19  81 CALM      30.20F
LEXINGTON      CLEAR     20  17  85 CALM      30.23F
MCCOOK         CLEAR     20  16  84 SW7       30.24F WCI  11
OGALLALA       CLEAR     20  18  90 CALM      30.19F
$$

NEZ005>010-023>029-035>040-094-261100-
NORTH CENTRAL NEBRASKA

CITY           SKY/WX    TMP DP  RH WIND       PRES   REMARKS
VALENTINE      CLEAR     18  15  88 SW3       30.18F
AINSWORTH      CLEAR     18  16  89 SW5       30.19F WCI  11
BROKEN BOW     CLEAR     16  11  80 CALM      30.21S
O`NEILL        CLEAR     22  18  86 W7        30.21F WCI  13
ORD            CLEAR     17  13  84 CALM      30.21S
THEDFORD       CLEAR     21  19  90 CALM      30.20F
$$

NEZ041-046>049-061>064-073>077-083>087-261100-
SOUTH CENTRAL NEBRASKA

CITY           SKY/WX    TMP DP  RH WIND       PRES   REMARKS
GRAND ISLAND   CLEAR     21  17  84 W6        30.23S WCI  13
AURORA         CLEAR     25  22  89 NW8       30.21S WCI  16
HASTINGS       CLEAR     22  17  81 NW9       30.21S WCI  12
HEBRON         CLEAR     29  24  80 NW7       30.22S WCI  22
HOLDREGE       FAIR      24  18  80 W6        30.23S WCI  17
KEARNEY *      CLEAR     23  18  80 W6        30.23S WCI  16
YORK           CLEAR     27  25  93 NW8       30.22R WCI  18
$$

NEZ011>018-030>034-042>045-261100-
NORTHEAST NEBRASKA

CITY           SKY/WX    TMP DP  RH WIND       PRES   REMARKS
NORFOLK        CLEAR     24  19  81 W6        30.20F WCI  17
ALBION         PTCLDY    21  18  85 N7        30.21S WCI  13
BLAIR          CLEAR     28  23  80 NW6       30.18R WCI  22
COLUMBUS *     CLEAR     25  16  68 NW7       30.22S WCI  17
FREMONT        CLEAR     26  22  87 W6        30.20R WCI  19
TEKAMAH        CLEAR     28  21  75 W14       30.19F WCI  17
WAYNE          CLEAR     20  17  88 CALM      30.21S
$$

NEZ050>053-065>068-078-088>093-261100-
SOUTHEAST NEBRASKA

CITY           SKY/WX    TMP DP  RH WIND       PRES   REMARKS
LINCOLN        CLEAR     30  24  78 N3        30.22R
OMAHA EPPLEY   CLEAR     26  23  88 N6        30.19S WCI  19
BEATRICE       CLEAR     25  22  88 CALM      30.21R
FALLS CITY     FAIR      31  27  85 NW5       30.19R WCI  26
NEBRASKA CITY  CLEAR     30  25  81 N7        30.19R WCI  23
PLATTSMOUTH    CLEAR     27  22  84 W8        30.19R WCI  18
$$

NEZ044-045-051>053-067-261100-
OMAHA AREA

CITY           SKY/WX    TMP DP  RH WIND       PRES   REMARKS
OMAHA EPPLEY   CLEAR     26  23  88 N6        30.19S WCI  19
BLAIR          CLEAR     28  23  80 NW6       30.18R WCI  22
FREMONT        CLEAR     26  22  87 W6        30.20R WCI  19
MILLARD        CLEAR     30  24  77 NW5       30.20R WCI  25
OFFUTT AFB     CLEAR     25  22  87 NW9       30.18S WCI  15
PLATTSMOUTH    CLEAR     27  22  84 W8        30.19R WCI  18
WAHOO          FAIR      28  22  77 NW8       30.20S WCI  20
$$



USA.gov is the U.S. government's official web portal to all federal, state and local government web resources and services.